Location: Unspecified
(44.0704°N, 88.6889°W)
Time: 04:43:27
(UTC+02:00)

Transit 2A - All Passes

Search period start: 17 June 2019 00:00
Search period end: 27 June 2019 00:00
Orbit: 593 x 966 km, 66.7° (Epoch: 16 June)

Date Brightness Start Highest point End Pass type
(mag) Time Alt. Az. Time Alt. Az. Time Alt. Az.
17 Jun - 08:33:15 10° S 08:39:01 38° ESE 08:44:47 10° NE visible
17 Jun - 10:16:07 10° WSW 10:22:13 46° NW 10:28:16 10° NNE visible
17 Jun - 12:03:50 10° WNW 12:07:04 14° NNW 12:10:16 10° N daylight
17 Jun - 15:37:27 10° N 15:39:40 12° NNE 15:41:49 10° NE daylight
17 Jun - 17:19:14 10° NNW 17:24:40 41° NE 17:29:34 10° ESE daylight
17 Jun - 19:02:50 10° NW 19:07:45 33° WSW 19:12:12 10° S daylight
18 Jun - 07:59:53 10° SSE 08:05:04 27° ESE 08:10:17 10° NE visible
18 Jun - 09:41:41 10° SW 09:47:59 61° NW 09:54:14 10° NNE visible
18 Jun - 11:28:27 10° WNW 11:32:31 17° NNW 11:36:31 10° N visible
18 Jun - 15:04:47 10° NNE 15:05:02 10° NNE 15:05:17 10° NNE daylight
18 Jun - 16:45:16 10° NNW 16:50:21 31° NE 16:54:58 10° ESE daylight
18 Jun - 18:28:27 10° NW 18:33:49 47° WSW 18:38:37 10° S daylight
19 Jun - 07:26:51 10° SSE 07:31:13 20° ESE 07:35:34 10° ENE visible
19 Jun - 09:07:26 10° SW 09:13:49 81° WNW 09:20:09 10° NNE visible
19 Jun - 10:53:17 10° W 10:58:02 21° NW 11:02:40 10° N visible
19 Jun - 16:11:20 10° NNW 16:15:57 24° NE 16:20:13 10° E daylight
19 Jun - 17:54:12 10° NW 17:59:49 69° WSW 18:04:48 10° SSE daylight
20 Jun - 06:54:29 10° SE 06:57:24 14° E 07:00:18 10° ENE visible
20 Jun - 08:33:21 10° SSW 08:39:42 76° ESE 08:46:01 10° NE visible
20 Jun - 10:18:18 10° W 10:23:36 27° NW 10:28:47 10° NNE visible
20 Jun - 15:37:29 10° N 15:41:30 19° NE 15:45:16 10° E daylight
20 Jun - 17:20:02 10° NNW 17:25:43 84° ENE 17:30:47 10° SSE daylight
20 Jun - 19:05:23 10° WNW 19:07:58 14° WSW 19:10:26 10° SW daylight
21 Jun - 07:59:27 10° SSW 08:05:38 56° ESE 08:11:48 10° NE visible
21 Jun - 09:43:30 10° WSW 09:49:13 34° NW 09:54:51 10° NNE visible
21 Jun - 11:32:39 10° NW 11:34:27 11° NNW 11:36:13 10° N visible
21 Jun - 15:03:42 10° N 15:06:59 15° NNE 15:10:05 10° ENE daylight
21 Jun - 16:45:56 10° NNW 16:51:34 60° NE 16:56:34 10° SE daylight
21 Jun - 18:30:15 10° WNW 18:34:10 20° WSW 18:37:48 10° SSW daylight
22 Jun - 07:25:47 10° S 07:31:39 41° ESE 07:37:30 10° NE visible
22 Jun - 09:08:52 10° WSW 09:14:55 44° NW 09:20:52 10° NNE visible
22 Jun - 10:56:50 10° NW 10:59:49 13° NNW 11:02:45 10° N visible
22 Jun - 14:30:05 10° N 14:32:25 12° NNE 14:34:39 10° NE daylight
22 Jun - 16:11:55 10° NNW 16:17:19 43° NE 16:22:11 10° ESE daylight
22 Jun - 17:55:36 10° NW 18:00:19 30° WSW 18:04:36 10° SSW daylight
23 Jun - 06:52:21 10° SSE 06:57:42 29° ESE 07:03:02 10° NE visible
23 Jun - 08:34:23 10° SW 08:40:40 57° NW 08:46:51 10° NNE visible
23 Jun - 10:21:24 10° WNW 10:25:16 16° NNW 10:29:02 10° N visible
23 Jun - 13:57:05 10° NNE 13:57:47 10° NNE 13:58:27 10° NNE daylight
23 Jun - 15:37:55 10° NNW 15:43:01 32° NE 15:47:38 10° ESE daylight
23 Jun - 17:21:11 10° NW 17:26:23 43° WSW 17:31:04 10° S daylight
24 Jun - 06:19:14 10° SSE 06:23:48 21° ESE 06:28:23 10° ENE visible
24 Jun - 08:00:06 10° SW 08:06:29 76° WNW 08:12:47 10° NNE visible
24 Jun - 09:46:11 10° W 09:50:45 20° NW 09:55:14 10° N visible
24 Jun - 15:03:59 10° NNW 15:08:39 25° NE 15:12:55 10° E daylight
24 Jun - 16:46:54 10° NW 16:52:24 64° WSW 16:57:18 10° SSE daylight
25 Jun - 05:46:40 10° SE 05:49:59 15° ESE 05:53:17 10° ENE visible
25 Jun - 07:25:59 10° SSW 07:32:22 81° ESE 07:38:39 10° NNE visible
25 Jun - 09:11:09 10° W 09:16:19 25° NW 09:21:21 10° NNE visible
25 Jun - 14:30:07 10° N 14:34:12 19° NE 14:38:00 10° E daylight
25 Jun - 16:12:43 10° NNW 16:18:20 90° NE 16:23:19 10° SSE daylight
25 Jun - 17:58:29 10° WNW 18:00:29 12° W 18:02:25 10° WSW daylight
26 Jun - 06:52:03 10° SSW 06:58:17 60° ESE 07:04:28 10° NE visible
26 Jun - 08:36:18 10° WSW 08:41:57 32° NW 08:47:26 10° NNE visible
26 Jun - 10:25:54 10° NW 10:27:12 11° NNW 10:28:30 10° N visible
26 Jun - 13:56:20 10° N 13:59:42 16° NNE 14:02:52 10° ENE daylight
26 Jun - 15:38:36 10° NNW 15:44:11 64° NE 15:49:09 10° SE daylight
26 Jun - 17:23:06 10° WNW 17:26:42 18° WSW 17:30:04 10° SSW daylight
